Printer-friendly version

IAU Minor Planet Center

Minor Planet Center

MPEC 2007-V67 : 2007 VM84

The following Minor Planet Electronic Circular may be linked-to from your own Web pages, but must not otherwise be redistributed electronically.


Read MPEC 2007-V66 Read MPEC 2007-V68


M.P.E.C. 2007-V67                                Issued 2007 Nov. 8, 17:31 UT

     The Minor Planet Electronic Circulars contain information on unusual
         minor planets and routine data on comets.  They are published
   on behalf of Commission 20 of the International Astronomical Union by the
          Minor Planet Center, Smithsonian Astrophysical Observatory,
                          Cambridge, MA 02138, U.S.A.

             Prepared using the Tamkin Foundation Computer Network

                              MPC@CFA.HARVARD.EDU
          URL http://www.cfa.harvard.edu/iau/mpc.html  ISSN 1523-6714

                                   2007 VM84

Observations:
     K07V84M* C2007 11 07.33343 04 03 38.67 +28 02 16.3          18.7   EV067704
     K07V84M  C2007 11 07.34581 04 03 32.14 +28 07 03.8          19.0   EV067704
     K07V84M  C2007 11 07.35822 04 03 25.51 +28 11 51.1          18.9   EV067704
     K07V84M  C2007 11 07.37062 04 03 18.89 +28 16 38.0          19.0   EV067704
     K07V84M  C2007 11 08.33726 03 55 08.25 +34 25 44.9          18.7 V EV067G96
     K07V84M  C2007 11 08.33762 03 55 08.04 +34 25 53.1          18.6 V EV067G96
     K07V84M  C2007 11 08.33798 03 55 07.82 +34 26 01.2          18.7 V EV067G96
     K07V84M  C2007 11 08.33835 03 55 07.60 +34 26 09.4          18.5 V EV067G96

Observer details:
704 Lincoln Laboratory ETS, New Mexico.  Observers M. Bezpalko, D. Torres,
    R. Kracke, G. Spitz, J. Kistler.  Measurers J. Stuart, S. Scruggs.  1.0-m
    f/2.15 reflector + CCD.
G96 Mt. Lemmon Survey.  Observer R. E. Hill.  Measurers E. C. Beshore,
    A. Boattini, G. J. Garradd, A. R. Gibbs, A. D. Grauer, R. E. Hill,
    R. A. Kowalski, S. M. Larson, R. H. McNaught.  1.5-m reflector + CCD.

Orbital elements:
2007 VM84                                                Earth MOID = 0.0627 AU
Epoch 2007 Oct. 27.0 TT = JDT 2454400.5                 MPC
M 349.26621              (2000.0)            P               Q
n   0.65630965     Peri.    6.07945     +0.63957349     -0.70951450
a   1.3113849      Node    44.67394     +0.68638174     +0.35376397
e   0.1972196      Incl.   24.88606     +0.34615872     +0.60945896
P   1.50           H   23.2           G   0.15           U   8
Residuals in seconds of arc
071107 704  0.3-  0.1-    071107 704  0.2-  0.0     071108 G96  0.0   0.1+
071107 704  0.4+  0.2+    071108 G96  0.0   0.0     071108 G96  0.0   0.1-
071107 704  0.1+  0.0     071108 G96  0.0   0.1+

Ephemeris:
2007 VM84                a,e,i = 1.31, 0.20, 25                  q = 1.0528
Date    TT    R. A. (2000) Decl.     Delta      r     Elong.  Phase     V
2007 11 06    04 13.48   +19 26.4    0.0670   1.054   158.0    20.6    18.5
2007 11 07    04 06.25   +25 53.1    0.0665   1.054   159.0    19.7    18.4
2007 11 08    03 58.11   +32 18.0    0.0669   1.053   157.9    20.7    18.5
2007 11 09    03 48.94   +38 29.8    0.0683   1.053   155.1    23.3    18.6
2007 11 10    03 38.60   +44 18.7    0.0705   1.053   151.4    26.8    18.8
2007 11 11    03 26.95   +49 37.8    0.0735   1.053   147.2    30.6    19.0
2007 11 12    03 13.85   +54 23.2    0.0772   1.053   143.1    34.4    19.2
2007 11 13    02 59.17   +58 33.6    0.0815   1.053   139.2    37.9    19.4
2007 11 14    02 42.79   +62 09.8    0.0863   1.053   135.5    41.2    19.6
2007 11 15    02 24.67   +65 13.4    0.0915   1.053   132.2    44.1    19.8
2007 11 16    02 04.85   +67 47.0    0.0970   1.053   129.2    46.7    20.0
2007 11 17    01 43.46   +69 53.2    0.103    1.053   126.6    49.0    20.2
2007 11 18    01 20.81   +71 34.8    0.109    1.054   124.1    50.9    20.4
2007 11 19    00 57.32   +72 54.6    0.115    1.054   122.0    52.7    20.6
2007 11 20    00 33.51   +73 55.5    0.121    1.054   120.1    54.2    20.7
2007 11 21    00 09.97   +74 40.3    0.128    1.055   118.3    55.6    20.9
2007 11 22    23 47.22   +75 11.5    0.135    1.055   116.7    56.7    21.0
2007 11 23    23 25.71   +75 31.8    0.141    1.056   115.3    57.8    21.2
2007 11 24    23 05.73   +75 43.4    0.148    1.056   114.0    58.6    21.3
2007 11 25    22 47.46   +75 48.3    0.155    1.057   112.8    59.4    21.4
2007 11 26    22 30.92   +75 48.2    0.162    1.058   111.7    60.1    21.5
2007 11 27    22 16.08   +75 44.4    0.169    1.058   110.7    60.7    21.6
2007 11 28    22 02.84   +75 37.9    0.175    1.059   109.8    61.2    21.7
2007 11 29    21 51.08   +75 29.7    0.182    1.060   109.0    61.6    21.8
2007 11 30    21 40.64   +75 20.4    0.189    1.061   108.2    62.0    21.9
2007 12 01    21 31.39   +75 10.4    0.196    1.062   107.5    62.3    22.0
2007 12 02    21 23.19   +75 00.3    0.203    1.063   106.9    62.6    22.1
2007 12 03    21 15.93   +74 50.2    0.210    1.064   106.2    62.8    22.2
2007 12 04    21 09.50   +74 40.4    0.217    1.065   105.7    63.0    22.3
2007 12 05    21 03.79   +74 31.0    0.223    1.066   105.1    63.2    22.3
2007 12 06    20 58.72   +74 22.1    0.230    1.067   104.6    63.3    22.4

Timothy B. Spahr             (C) Copyright 2007 MPC           M.P.E.C. 2007-V67

Read MPEC 2007-V66 Read MPEC 2007-V68


Our Web policy. Index to the CBAT/MPC/ICQ pages.


Valid HTML 4.01!